TimeCST,TemperatureF,Dew PointF,Humidity,Sea Level PressureIn,VisibilityMPH,Wind Direction,Wind SpeedMPH,Gust SpeedMPH,PrecipitationIn,Events,Conditions,WindDirDegrees,DateUTC
12:53 AM,48.9,42.1,77,30.18,8.0,NNW,3.5,-,N/A,,Clear,340,2012-11-21 06:53:00
1:53 AM,50.0,44.1,80,30.19,8.0,Calm,Calm,-,N/A,,Clear,0,2012-11-21 07:53:00
2:53 AM,45.0,41.0,86,30.20,8.0,NW,3.5,-,N/A,,Clear,310,2012-11-21 08:53:00
3:53 AM,43.0,39.9,89,30.20,7.0,NW,3.5,-,N/A,,Clear,320,2012-11-21 09:53:00
4:53 AM,44.1,41.0,89,30.22,5.0,Calm,Calm,-,N/A,,Clear,0,2012-11-21 10:53:00
5:53 AM,43.0,39.9,89,30.24,4.0,Calm,Calm,-,N/A,,Clear,0,2012-11-21 11:53:00
6:42 AM,41.0,39.2,93,30.25,2.0,NW,3.5,-,N/A,,Clear,310,2012-11-21 12:42:00
6:50 AM,39.2,37.4,93,30.26,1.5,Calm,Calm,-,N/A,,Clear,0,2012-11-21 12:50:00
6:53 AM,39.9,37.9,93,30.26,1.5,Calm,Calm,-,N/A,,Clear,0,2012-11-21 12:53:00
7:36 AM,42.8,42.8,100,30.25,3.0,Calm,Calm,-,N/A,,Clear,0,2012-11-21 13:36:00
7:53 AM,46.0,44.1,93,30.26,2.5,Calm,Calm,-,N/A,,Clear,0,2012-11-21 13:53:00
8:17 AM,48.2,44.6,87,30.27,3.0,NW,3.5,-,N/A,,Clear,310,2012-11-21 14:17:00
8:53 AM,52.0,46.9,83,30.28,4.0,WNW,3.5,-,N/A,,Haze,300,2012-11-21 14:53:00
9:53 AM,59.0,48.9,69,30.29,5.0,NNW,3.5,-,N/A,,Haze,340,2012-11-21 15:53:00
10:53 AM,63.0,50.0,63,30.28,6.0,Calm,Calm,-,N/A,,Haze,0,2012-11-21 16:53:00
11:53 AM,64.9,48.0,54,30.26,8.0,Calm,Calm,-,N/A,,Clear,0,2012-11-21 17:53:00
12:53 PM,66.0,48.0,52,30.23,8.0,Calm,Calm,-,N/A,,Clear,0,2012-11-21 18:53:00
1:53 PM,66.0,48.0,52,30.21,8.0,SSE,4.6,-,N/A,,Clear,150,2012-11-21 19:53:00
2:53 PM,66.0,48.0,52,30.20,8.0,South,3.5,-,N/A,,Clear,180,2012-11-21 20:53:00
3:53 PM,64.0,48.9,58,30.20,8.0,SSE,6.9,-,N/A,,Clear,150,2012-11-21 21:53:00
4:53 PM,60.1,48.0,64,30.20,7.0,SSE,3.5,-,N/A,,Clear,150,2012-11-21 22:53:00
5:53 PM,55.0,46.9,74,30.21,7.0,South,3.5,-,N/A,,Clear,170,2012-11-21 23:53:00
6:53 PM,53.1,46.9,80,30.21,7.0,SSE,3.5,-,N/A,,Clear,150,2012-11-22 00:53:00
7:53 PM,53.1,46.0,77,30.19,7.0,SSE,3.5,-,N/A,,Clear,150,2012-11-22 01:53:00
8:53 PM,45.0,42.1,90,30.21,5.0,Calm,Calm,-,N/A,,Clear,0,2012-11-22 02:53:00
9:53 PM,44.1,41.0,89,30.20,4.0,Calm,Calm,-,N/A,,Clear,0,2012-11-22 03:53:00
10:25 PM,44.6,41.0,87,30.19,1.8,Calm,Calm,-,N/A,,Clear,0,2012-11-22 04:25:00
10:53 PM,42.1,39.9,92,30.19,3.0,Calm,Calm,-,N/A,,Clear,0,2012-11-22 04:53:00
11:10 PM,42.8,39.2,87,30.19,2.0,Calm,Calm,-,N/A,,Clear,0,2012-11-22 05:10:00
11:19 PM,42.8,39.2,87,30.19,1.2,Calm,Calm,-,N/A,,Clear,0,2012-11-22 05:19:00
11:38 PM,41.0,37.4,87,30.19,4.0,Calm,Calm,-,N/A,,Clear,0,2012-11-22 05:38:00
11:53 PM,42.1,39.0,89,30.19,4.0,Calm,Calm,-,N/A,,Partly Cloudy,0,2012-11-22 05:53:00